Location: Newark
(43.0000°N, 1.6781°W)
Time: 06:39:09
(UTC+00:00)

FO-29 - Visible Passes

Search period start: 08 December 2023 00:00
Search period end: 18 December 2023 00:00
Orbit: 800 x 1321 km, 98.6° (Epoch: 07 December)

Date Brightness Start Highest point End Pass type
(mag) Time Alt. Az. Time Alt. Az. Time Alt. Az.
08 Dec 12.2 02:54:42 10° NNE 02:55:34 14° NNE 02:55:34 14° NNE visible
08 Dec 11.7 04:40:34 10° N 04:42:03 16° NNW 04:42:03 16° NNW visible
09 Dec 11.9 03:44:46 10° N 03:46:11 17° N 03:46:11 17° N visible
09 Dec 11.9 05:32:17 10° NNW 05:32:39 11° NNW 05:32:39 11° NNW visible
10 Dec 12.3 02:49:36 10° NNE 02:50:19 13° NNE 02:50:19 13° NNE visible
10 Dec 11.8 04:35:22 10° N 04:36:48 15° NNW 04:36:48 15° NNW visible
11 Dec 12.0 03:39:38 10° N 03:40:56 16° N 03:40:56 16° N visible
11 Dec 11.9 05:26:55 10° NNW 05:27:25 11° NNW 05:27:25 11° NNW visible
12 Dec 12.3 02:44:32 10° NNE 02:45:04 12° NNE 02:45:04 12° NNE visible
12 Dec 11.8 04:30:12 10° N 04:31:33 15° N 04:31:33 15° N visible
13 Dec 12.0 03:34:31 10° N 03:35:42 15° N 03:35:42 15° N visible
13 Dec 11.9 05:21:36 10° NNW 05:22:10 11° NNW 05:22:10 11° NNW visible
14 Dec 12.4 02:39:29 10° NNE 02:39:51 12° NNE 02:39:51 12° NNE visible
14 Dec 11.9 04:25:02 10° N 04:26:19 15° N 04:26:19 15° N visible
15 Dec 12.1 03:29:25 10° N 03:30:28 15° N 03:30:28 15° N visible
15 Dec 11.9 05:16:20 10° NNW 05:16:57 12° NNW 05:16:57 12° NNW visible
16 Dec 12.5 02:34:26 10° NNE 02:34:37 11° NNE 02:34:37 11° NNE visible
16 Dec 11.9 04:19:54 10° N 04:21:06 15° N 04:21:06 15° N visible
17 Dec 12.1 03:24:20 10° N 03:25:15 14° N 03:25:15 14° N visible
17 Dec 11.9 05:11:05 10° NNW 05:11:43 12° NNW 05:11:43 12° NNW visible
